Location: Andiroba
(19.8650°S, 43.9258°W)
Time: 01:35:41
(UTC+00:00)

CZ-3 R/B - Pass Details

Date: 15 June 2024
Orbit: 497 x 10068 km, 28.3° (Epoch: 24 July)

Event Time Altitude Azimuth Distance (km) Brightness Sun altitude
Rises 05:29:25 0° 310° (NW) 14,114 7.2 -54.3°
Reaches altitude 10° 05:46:25 10° 315° (NW) 11,469 6.7 -50.4°
Maximum altitude 06:21:24 47° 19° (NNE) 3,511 4.3 -42.4°
Drops below altitude 10° 06:30:58 10° 90° (E) 3,619 5.1 -40.3°
Sets 06:33:03 0° 97° (E) 4,146 5.6 -39.8°
